SEY264 FSIA-VABB

Flight info

Callsign SEY264
Flight time 3h 56m
Altitude 41000
Route UTALI DCT BOMOB DCT CLAVA B459 GUNDI KETOR2B
Aircraft A359/H-SDE2E3GHIJ3J4J5LM1ORWXY/LB1D1

Departure

Time 2026-04-20 18:16
Airport Seychelles International Airport (FSIA)

Arrival

Time 2026-04-20 22:13
Airport Chhatrapati Shivaji Maharaj International Airport (VABB)
Time Latitude Longitude Altitude Speed Heading
2026-04-20 17:16 -4.67113 55.51281 27 ft 0 kts 215°
2026-04-20 17:49 -4.67095 55.51292 25 ft 4 kts 208°
2026-04-20 17:49 -4.67071 55.51303 26 ft 4 kts 199°
2026-04-20 17:49 -4.67045 55.51311 25 ft 4 kts 191°
2026-04-20 17:49 -4.67018 55.51315 24 ft 4 kts 185°
2026-04-20 17:50 -4.66991 55.51317 24 ft 4 kts 186°
2026-04-20 17:50 -4.66967 55.51322 24 ft 2 kts 214°
2026-04-20 17:50 -4.66966 55.51323 24 ft 0 kts 215°
2026-04-20 17:52 -4.66974 55.51317 24 ft 5 kts 216°
2026-04-20 17:52 -4.67001 55.51287 25 ft 6 kts 240°
2026-04-20 17:52 -4.67002 55.51240 27 ft 7 kts 288°
2026-04-20 17:53 -4.66962 55.51211 27 ft 8 kts 350°
2026-04-20 17:53 -4.66905 55.51195 27 ft 9 kts 330°
2026-04-20 17:53 -4.66864 55.51150 27 ft 0 kts 305°
2026-04-20 18:05 -4.66863 55.51149 27 ft 2 kts 305°
2026-04-20 18:06 -4.66846 55.51124 27 ft 6 kts 304°
2026-04-20 18:06 -4.66819 55.51083 27 ft 8 kts 303°
2026-04-20 18:06 -4.66782 55.51034 27 ft 9 kts 322°
2026-04-20 18:06 -4.66751 55.51030 27 ft 0 kts
2026-04-20 18:14 -4.66750 55.51031 27 ft 4 kts
2026-04-20 18:14 -4.66695 55.51077 29 ft 10 kts 83°
2026-04-20 18:14 -4.66725 55.51145 29 ft 10 kts 124°
2026-04-20 18:15 -4.66739 55.51166 29 ft 0 kts 125°
2026-04-20 18:15 -4.66800 55.51253 29 ft 48 kts 124°
2026-04-20 18:16 -4.67124 55.51725 27 ft 115 kts 123°
2026-04-20 18:16 -4.67684 55.52548 46 ft 168 kts 124°
2026-04-20 18:16 -4.68287 55.53512 801 ft 159 kts 124°
2026-04-20 18:16 -4.68917 55.54415 1473 ft 163 kts 127°
2026-04-20 18:17 -4.69496 55.55468 1629 ft 186 kts 107°
2026-04-20 18:17 -4.69317 55.56798 1703 ft 213 kts 61°
2026-04-20 18:17 -4.68237 55.57912 1922 ft 234 kts 38°
2026-04-20 18:17 -4.66882 55.58932 2213 ft 252 kts 38°
2026-04-20 18:18 -4.65418 55.59961 2639 ft 261 kts 28°
2026-04-20 18:18 -4.63648 55.60375 3208 ft 264 kts
2026-04-20 18:18 -4.61795 55.60420 3790 ft 268 kts
2026-04-20 18:18 -4.59923 55.60441 4368 ft 271 kts
2026-04-20 18:19 -4.58025 55.60478 4947 ft 274 kts
2026-04-20 18:19 -4.56112 55.60527 5522 ft 276 kts
2026-04-20 18:19 -4.54210 55.60583 6086 ft 278 kts
2026-04-20 18:19 -4.52267 55.60644 6636 ft 280 kts
2026-04-20 18:20 -4.50323 55.60866 7131 ft 283 kts 15°
2026-04-20 18:20 -4.48496 55.61599 7658 ft 284 kts 27°
2026-04-20 18:20 -4.46768 55.62578 8170 ft 286 kts 32°
2026-04-20 18:20 -4.45092 55.63675 8724 ft 289 kts 34°
2026-04-20 18:21 -4.43428 55.64818 9268 ft 291 kts 35°
2026-04-20 18:21 -4.41750 55.65968 9799 ft 293 kts 35°
2026-04-20 18:21 -4.40043 55.67117 10175 ft 301 kts 33°
2026-04-20 18:21 -4.38254 55.68294 10378 ft 314 kts 33°
2026-04-20 18:22 -4.36378 55.69506 10594 ft 327 kts 32°
2026-04-20 18:22 -4.34444 55.70742 10787 ft 338 kts 32°
2026-04-20 18:22 -4.32428 55.72024 10998 ft 349 kts 32°
2026-04-20 18:22 -4.30382 55.73323 11243 ft 356 kts 32°
2026-04-20 18:23 -4.28280 55.74660 11624 ft 360 kts 32°
2026-04-20 18:23 -4.26154 55.76013 12023 ft 362 kts 32°
2026-04-20 18:23 -4.24021 55.77372 12440 ft 364 kts 32°
2026-04-20 18:23 -4.21894 55.78767 12826 ft 367 kts 34°
2026-04-20 18:24 -4.19789 55.80231 13221 ft 369 kts 35°
2026-04-20 18:24 -4.17690 55.81730 13606 ft 371 kts 35°
2026-04-20 18:24 -4.15587 55.83241 13966 ft 373 kts 36°
2026-04-20 18:24 -4.13465 55.84759 14289 ft 376 kts 35°
2026-04-20 18:25 -4.11330 55.86276 14629 ft 378 kts 35°
2026-04-20 18:25 -4.09171 55.87802 14949 ft 381 kts 35°
2026-04-20 18:25 -4.06997 55.89332 15272 ft 383 kts 35°
2026-04-20 18:25 -4.04808 55.90869 15595 ft 386 kts 35°
2026-04-20 18:26 -4.02631 55.92396 15912 ft 388 kts 35°
2026-04-20 18:26 -4.00409 55.93955 16235 ft 391 kts 35°
2026-04-20 18:26 -3.98172 55.95524 16567 ft 393 kts 36°
2026-04-20 18:26 -3.95927 55.97099 16883 ft 395 kts 36°
2026-04-20 18:27 -3.93662 55.98689 17211 ft 397 kts 36°
2026-04-20 18:27 -3.91393 56.00281 17534 ft 400 kts 36°
2026-04-20 18:27 -3.89106 56.01886 17843 ft 402 kts 36°
2026-04-20 18:27 -3.86807 56.03500 18158 ft 404 kts 36°
2026-04-20 18:28 -3.84492 56.05124 18435 ft 406 kts 36°
2026-04-20 18:28 -3.82170 56.06753 18723 ft 408 kts 36°
2026-04-20 18:28 -3.79840 56.08388 18991 ft 410 kts 36°
2026-04-20 18:28 -3.77499 56.10030 19284 ft 411 kts 36°
2026-04-20 18:29 -3.75150 56.11677 19565 ft 413 kts 36°
2026-04-20 18:29 -3.72817 56.13314 19831 ft 414 kts 35°
2026-04-20 18:29 -3.70452 56.14972 20091 ft 416 kts 35°
2026-04-20 18:29 -3.68071 56.16642 20364 ft 418 kts 35°
2026-04-20 18:30 -3.65681 56.18319 20633 ft 420 kts 35°
2026-04-20 18:30 -3.63281 56.20001 20874 ft 422 kts 35°
2026-04-20 18:30 -3.60901 56.21670 21130 ft 423 kts 35°
2026-04-20 18:30 -3.58485 56.23365 21386 ft 425 kts 35°
2026-04-20 18:31 -3.56050 56.25072 21643 ft 427 kts 35°
2026-04-20 18:31 -3.53604 56.26786 21879 ft 429 kts 35°
2026-04-20 18:31 -3.51155 56.28503 22135 ft 430 kts 35°
2026-04-20 18:31 -3.48700 56.30224 22379 ft 431 kts 35°
2026-04-20 18:32 -3.46230 56.31955 22693 ft 432 kts 34°
2026-04-20 18:32 -3.43794 56.33662 22897 ft 433 kts 34°
2026-04-20 18:32 -3.41320 56.35396 23128 ft 435 kts 34°
2026-04-20 18:32 -3.38830 56.37141 23361 ft 437 kts 34°
2026-04-20 18:33 -3.36336 56.38889 23559 ft 438 kts 34°
2026-04-20 18:33 -3.33836 56.40641 23749 ft 439 kts 34°
2026-04-20 18:33 -3.31326 56.42400 23943 ft 440 kts 34°
2026-04-20 18:33 -3.28818 56.44156 24128 ft 441 kts 34°
2026-04-20 18:34 -3.26301 56.45920 24335 ft 442 kts 34°
2026-04-20 18:34 -3.23777 56.47688 24519 ft 443 kts 34°
2026-04-20 18:34 -3.21249 56.49459 24711 ft 444 kts 34°
2026-04-20 18:34 -3.18750 56.51210 24890 ft 445 kts 34°
2026-04-20 18:35 -3.16211 56.52988 25092 ft 445 kts 34°
2026-04-20 18:35 -3.13668 56.54769 25297 ft 446 kts 34°
2026-04-20 18:35 -3.11121 56.56552 25483 ft 447 kts 34°
2026-04-20 18:35 -3.08571 56.58338 25664 ft 448 kts 34°
2026-04-20 18:36 -3.06014 56.60129 25845 ft 449 kts 34°
2026-04-20 18:36 -3.03445 56.61927 26043 ft 450 kts 34°
2026-04-20 18:36 -3.00872 56.63729 26239 ft 451 kts 34°
2026-04-20 18:36 -2.98295 56.65533 26429 ft 452 kts 34°
2026-04-20 18:37 -2.95714 56.67340 26626 ft 453 kts 34°
2026-04-20 18:37 -2.93156 56.69131 26813 ft 455 kts 34°
2026-04-20 18:37 -2.90556 56.70950 27004 ft 456 kts 34°
2026-04-20 18:37 -2.87951 56.72774 27213 ft 457 kts 33°
2026-04-20 18:38 -2.85342 56.74600 27407 ft 458 kts 33°
2026-04-20 18:38 -2.82723 56.76433 27611 ft 459 kts 33°
2026-04-20 18:38 -2.80102 56.78267 27820 ft 460 kts 33°
2026-04-20 18:38 -2.77475 56.80105 28020 ft 461 kts 33°
2026-04-20 18:39 -2.74863 56.81933 28233 ft 462 kts 33°
2026-04-20 18:39 -2.72224 56.83780 28441 ft 463 kts 33°
2026-04-20 18:39 -2.69577 56.85632 28652 ft 464 kts 33°
2026-04-20 18:39 -2.66923 56.87489 28854 ft 466 kts 33°
2026-04-20 18:40 -2.64268 56.89346 29062 ft 467 kts 33°
2026-04-20 18:40 -2.61599 56.91214 29264 ft 468 kts 33°
2026-04-20 18:40 -2.58930 56.93081 29461 ft 469 kts 33°
2026-04-20 18:40 -2.56247 56.94957 29692 ft 470 kts 33°
2026-04-20 18:41 -2.53565 56.96833 29956 ft 470 kts 33°
2026-04-20 18:41 -2.50884 56.98709 30161 ft 471 kts 33°
2026-04-20 18:41 -2.48227 57.00567 30333 ft 472 kts 33°
2026-04-20 18:41 -2.45531 57.02452 30518 ft 474 kts 33°
2026-04-20 18:42 -2.42823 57.04346 30711 ft 475 kts 33°
2026-04-20 18:42 -2.40110 57.06243 30910 ft 476 kts 33°
2026-04-20 18:42 -2.37386 57.08148 31107 ft 478 kts 33°
2026-04-20 18:42 -2.34661 57.10053 31300 ft 479 kts 33°
2026-04-20 18:43 -2.31923 57.11968 31479 ft 480 kts 33°
2026-04-20 18:43 -2.29181 57.13885 31686 ft 481 kts 33°
2026-04-20 18:43 -2.26432 57.15807 31857 ft 483 kts 33°
2026-04-20 18:43 -2.23674 57.17735 32043 ft 484 kts 33°
2026-04-20 18:44 -2.20908 57.19669 32247 ft 484 kts 33°
2026-04-20 18:44 -2.18148 57.21598 32431 ft 485 kts 33°
2026-04-20 18:44 -2.15406 57.23515 32583 ft 487 kts 33°
2026-04-20 18:44 -2.12625 57.25458 32747 ft 488 kts 33°
2026-04-20 18:45 -2.09842 57.27404 32903 ft 489 kts 33°
2026-04-20 18:45 -2.07038 57.29363 33081 ft 490 kts 33°
2026-04-20 18:45 -2.04239 57.31319 33231 ft 491 kts 33°
2026-04-20 18:45 -2.01434 57.33280 33407 ft 492 kts 33°
2026-04-20 18:46 -1.98618 57.35247 33545 ft 493 kts 33°
2026-04-20 18:46 -1.95838 57.37190 33730 ft 494 kts 33°
2026-04-20 18:46 -1.93025 57.39156 33954 ft 493 kts 33°
2026-04-20 18:46 -1.90210 57.41123 34204 ft 492 kts 33°
2026-04-20 18:47 -1.87413 57.43078 34436 ft 491 kts 33°
2026-04-20 18:47 -1.84613 57.45034 34640 ft 491 kts 33°
2026-04-20 18:47 -1.81818 57.46987 34865 ft 490 kts 33°
2026-04-20 18:47 -1.79021 57.48941 35097 ft 490 kts 33°
2026-04-20 18:48 -1.76225 57.50894 35330 ft 489 kts 33°
2026-04-20 18:48 -1.73436 57.52843 35559 ft 489 kts 33°
2026-04-20 18:48 -1.70649 57.54789 35798 ft 488 kts 33°
2026-04-20 18:48 -1.67865 57.56734 36042 ft 488 kts 33°
2026-04-20 18:49 -1.65083 57.58677 36247 ft 487 kts 33°
2026-04-20 18:49 -1.62302 57.60620 36486 ft 487 kts 33°
2026-04-20 18:49 -1.59559 57.62536 36746 ft 486 kts 33°
2026-04-20 18:49 -1.56791 57.64470 37032 ft 484 kts 33°
2026-04-20 18:50 -1.54031 57.66408 37269 ft 484 kts 33°
2026-04-20 18:50 -1.51284 57.68348 37510 ft 484 kts 34°
2026-04-20 18:50 -1.48533 57.70293 37725 ft 483 kts 34°
2026-04-20 18:50 -1.45788 57.72236 37953 ft 483 kts 34°
2026-04-20 18:51 -1.43076 57.74153 38193 ft 482 kts 34°
2026-04-20 18:51 -1.40338 57.76088 38405 ft 481 kts 34°
2026-04-20 18:51 -1.37599 57.78022 38632 ft 481 kts 34°
2026-04-20 18:51 -1.34864 57.79953 38774 ft 481 kts 34°
2026-04-20 18:52 -1.32126 57.81886 38912 ft 482 kts 33°
2026-04-20 18:52 -1.29382 57.83822 39048 ft 482 kts 33°
2026-04-20 18:52 -1.26643 57.85755 39225 ft 482 kts 33°
2026-04-20 18:52 -1.23939 57.87663 39377 ft 482 kts 33°
2026-04-20 18:53 -1.21200 57.89596 39507 ft 482 kts 33°
2026-04-20 18:53 -1.18460 57.91529 39632 ft 482 kts 33°
2026-04-20 18:53 -1.15717 57.93465 39764 ft 483 kts 33°
2026-04-20 18:53 -1.12972 57.95402 39885 ft 483 kts 33°
2026-04-20 18:54 -1.10222 57.97342 40010 ft 483 kts 33°
2026-04-20 18:54 -1.07476 57.99280 40124 ft 484 kts 33°
2026-04-20 18:54 -1.04728 58.01219 40242 ft 484 kts 33°
2026-04-20 18:54 -1.01979 58.03159 40356 ft 484 kts 33°
2026-04-20 18:55 -0.99225 58.05102 40476 ft 484 kts 33°
2026-04-20 18:55 -0.96475 58.07043 40595 ft 484 kts 33°
2026-04-20 18:55 -0.93723 58.08984 40720 ft 484 kts 33°
2026-04-20 18:55 -0.90978 58.10921 40839 ft 484 kts 33°
2026-04-20 18:56 -0.85502 58.14784 40894 ft 484 kts 33°
2026-04-20 18:56 -0.79985 58.18677 40894 ft 484 kts 33°
2026-04-20 18:57 -0.74485 58.22557 40892 ft 484 kts 33°
2026-04-20 18:57 -0.68981 58.26440 40895 ft 484 kts 33°
2026-04-20 18:58 -0.63498 58.30308 40892 ft 484 kts 33°
2026-04-20 18:58 -0.57997 58.34188 40895 ft 484 kts 33°
2026-04-20 18:59 -0.53389 58.37439 40891 ft 484 kts 33°
2026-04-20 18:59 -0.47887 58.41320 40895 ft 484 kts 33°
2026-04-20 19:00 -0.42388 58.45199 40893 ft 484 kts 33°
2026-04-20 19:00 -0.36915 58.49060 40896 ft 484 kts 33°
2026-04-20 19:01 -0.31404 58.52946 40893 ft 484 kts 33°
2026-04-20 19:01 -0.25898 58.56830 40891 ft 484 kts 33°
2026-04-20 19:02 -0.20385 58.60719 40890 ft 484 kts 33°
2026-04-20 19:02 -0.14919 58.64574 40894 ft 484 kts 33°
2026-04-20 19:03 -0.09413 58.68458 40891 ft 484 kts 33°
2026-04-20 19:03 -0.03906 58.72342 40895 ft 484 kts 33°
2026-04-20 19:04 0.01597 58.76223 40891 ft 484 kts 33°
2026-04-20 19:04 0.07100 58.80105 40891 ft 484 kts 33°
2026-04-20 19:05 0.12606 58.83988 40885 ft 484 kts 33°
2026-04-20 19:05 0.18063 58.87837 40889 ft 484 kts 33°
2026-04-20 19:06 0.23566 58.91719 40889 ft 484 kts 33°
2026-04-20 19:06 0.29062 58.95596 40892 ft 483 kts 33°
2026-04-20 19:07 0.34563 58.99476 40889 ft 483 kts 33°
2026-04-20 19:07 0.40059 59.03353 40894 ft 484 kts 33°
2026-04-20 19:08 0.48316 59.09176 40893 ft 484 kts 33°
2026-04-20 19:09 0.53827 59.13064 40888 ft 484 kts 33°
2026-04-20 19:09 0.59298 59.16924 40889 ft 484 kts 33°
2026-04-20 19:10 0.64803 59.20807 40890 ft 484 kts 33°
2026-04-20 19:10 0.70312 59.24694 40888 ft 484 kts 33°
2026-04-20 19:11 0.75821 59.28580 40888 ft 484 kts 33°
2026-04-20 19:11 0.81319 59.32458 40887 ft 484 kts 33°
2026-04-20 19:12 0.86793 59.36320 40886 ft 485 kts 33°
2026-04-20 19:12 0.92307 59.40211 40890 ft 485 kts 33°
2026-04-20 19:13 0.97817 59.44099 40885 ft 485 kts 33°
2026-04-20 19:13 1.03323 59.47984 40886 ft 485 kts 33°
2026-04-20 19:14 1.08838 59.51875 40883 ft 485 kts 33°
2026-04-20 19:14 1.14345 59.55761 40890 ft 485 kts 33°
2026-04-20 19:15 1.19857 59.59651 40884 ft 485 kts 33°
2026-04-20 19:15 1.25377 59.63547 40887 ft 485 kts 33°
2026-04-20 19:16 1.30852 59.67411 40886 ft 485 kts 33°
2026-04-20 19:16 1.36373 59.71308 40884 ft 485 kts 33°
2026-04-20 19:17 1.41891 59.75202 40886 ft 485 kts 33°
2026-04-20 19:17 1.47397 59.79089 40888 ft 485 kts 33°
2026-04-20 19:18 1.52876 59.82957 40886 ft 485 kts 33°
2026-04-20 19:18 1.58390 59.86849 40884 ft 485 kts 33°
2026-04-20 19:19 1.63911 59.90747 40887 ft 485 kts 33°
2026-04-20 19:19 1.69419 59.94637 40880 ft 485 kts 33°
2026-04-20 19:20 1.74930 59.98528 40881 ft 484 kts 33°
2026-04-20 19:20 1.80397 60.02405 40885 ft 484 kts 33°
2026-04-20 19:21 1.85872 60.06344 40884 ft 485 kts 33°
2026-04-20 19:21 1.91346 60.10290 40885 ft 485 kts 33°
2026-04-20 19:22 1.96829 60.14235 40883 ft 485 kts 33°
2026-04-20 19:22 2.02302 60.18168 40887 ft 484 kts 33°
2026-04-20 19:23 2.07741 60.22076 40884 ft 484 kts 33°
2026-04-20 19:23 2.13218 60.26011 40885 ft 484 kts 33°
2026-04-20 19:24 2.18687 60.29942 40879 ft 484 kts 33°
2026-04-20 19:24 2.24164 60.33878 40880 ft 484 kts 33°
2026-04-20 19:25 2.29640 60.37815 40882 ft 484 kts 33°
2026-04-20 19:25 2.35084 60.41729 40883 ft 484 kts 33°
2026-04-20 19:26 2.40544 60.45655 40883 ft 483 kts 33°
2026-04-20 19:26 2.46009 60.49584 40883 ft 483 kts 33°
2026-04-20 19:27 2.51471 60.53512 40875 ft 483 kts 33°
2026-04-20 19:27 2.56932 60.57440 40879 ft 484 kts 33°
2026-04-20 19:28 2.62396 60.61370 40878 ft 484 kts 33°
2026-04-20 19:28 2.67824 60.65274 40876 ft 483 kts 33°
2026-04-20 19:29 2.73288 60.69205 40880 ft 483 kts 33°
2026-04-20 19:29 2.78750 60.73135 40880 ft 483 kts 33°
2026-04-20 19:30 2.84212 60.77066 40881 ft 483 kts 33°
2026-04-20 19:30 2.89650 60.80979 40883 ft 484 kts 33°
2026-04-20 19:31 2.95125 60.84920 40885 ft 484 kts 33°
2026-04-20 19:31 3.00589 60.88854 40883 ft 484 kts 33°
2026-04-20 19:32 3.06066 60.92797 40883 ft 484 kts 33°
2026-04-20 19:32 3.11538 60.96737 40883 ft 484 kts 33°
2026-04-20 19:33 3.16968 61.00647 40874 ft 484 kts 33°
2026-04-20 19:33 3.22438 61.04587 40877 ft 484 kts 33°
2026-04-20 19:34 3.27924 61.08539 40878 ft 485 kts 33°
2026-04-20 19:34 3.33406 61.12488 40877 ft 485 kts 33°
2026-04-20 19:35 3.38857 61.16415 40881 ft 485 kts 33°
2026-04-20 19:35 3.44339 61.20366 40877 ft 485 kts 33°
2026-04-20 19:36 3.49825 61.24320 40877 ft 485 kts 33°
2026-04-20 19:36 3.55272 61.28247 40881 ft 485 kts 33°
2026-04-20 19:37 3.60756 61.32200 40877 ft 485 kts 33°
2026-04-20 19:37 3.66233 61.36150 40876 ft 485 kts 33°
2026-04-20 19:38 3.71692 61.40087 40871 ft 485 kts 33°
2026-04-20 19:38 3.77168 61.44037 40880 ft 485 kts 33°
2026-04-20 19:39 3.82655 61.47995 40872 ft 485 kts 33°
2026-04-20 19:39 3.88139 61.51952 40879 ft 485 kts 33°
2026-04-20 19:40 3.93614 61.55903 40882 ft 485 kts 33°
2026-04-20 19:40 3.99066 61.59838 40883 ft 485 kts 33°
2026-04-20 19:41 4.04545 61.63793 40879 ft 485 kts 33°
2026-04-20 19:41 4.10019 61.67745 40879 ft 485 kts 33°
2026-04-20 19:42 4.15491 61.71697 40865 ft 485 kts 33°
2026-04-20 19:42 4.20959 61.75646 40885 ft 484 kts 33°
2026-04-20 19:43 4.26433 61.79600 40879 ft 484 kts 33°
2026-04-20 19:43 4.31877 61.83534 40876 ft 484 kts 33°
2026-04-20 19:44 4.37343 61.87500 40884 ft 485 kts 33°
2026-04-20 19:44 4.42757 61.91541 40885 ft 484 kts 34°
2026-04-20 19:45 4.48140 61.95583 40878 ft 483 kts 34°
2026-04-20 19:45 4.53497 61.99592 40876 ft 483 kts 34°
2026-04-20 19:46 4.58890 62.03618 40869 ft 483 kts 33°
2026-04-20 19:46 4.64280 62.07640 40876 ft 483 kts 33°
2026-04-20 19:47 4.69671 62.11664 40870 ft 483 kts 33°
2026-04-20 19:47 4.75062 62.15689 40870 ft 482 kts 33°
2026-04-20 19:48 4.80442 62.19707 40884 ft 481 kts 33°
2026-04-20 19:48 4.85779 62.23693 40870 ft 481 kts 33°
2026-04-20 19:49 4.91153 62.27707 40868 ft 482 kts 33°
2026-04-20 19:49 4.96532 62.31727 40867 ft 482 kts 33°
2026-04-20 19:50 5.01922 62.35748 40870 ft 482 kts 33°
2026-04-20 19:50 5.07386 62.39638 40874 ft 481 kts 32°
2026-04-20 19:51 5.11952 62.42829 40874 ft 481 kts 32°
2026-04-20 19:51 5.17433 62.46679 40876 ft 481 kts 32°
2026-04-20 19:52 5.22905 62.50547 40875 ft 481 kts 32°
2026-04-20 19:52 5.28369 62.54421 40875 ft 481 kts 32°
2026-04-20 19:53 5.33837 62.58299 40878 ft 482 kts 32°
2026-04-20 19:53 5.39287 62.62165 40879 ft 482 kts 32°
2026-04-20 19:54 5.44759 62.66045 40878 ft 482 kts 32°
2026-04-20 19:54 5.50239 62.69933 40878 ft 482 kts 32°
2026-04-20 19:55 5.55712 62.73816 40878 ft 482 kts 32°
2026-04-20 19:55 5.61160 62.77682 40876 ft 482 kts 32°
2026-04-20 19:56 5.66638 62.81571 40874 ft 482 kts 32°
2026-04-20 19:56 5.72119 62.85462 40875 ft 482 kts 32°
2026-04-20 19:57 5.77603 62.89357 40876 ft 483 kts 32°
2026-04-20 19:57 5.83057 62.93230 40875 ft 483 kts 32°
2026-04-20 19:58 5.88541 62.97128 40876 ft 483 kts 32°
2026-04-20 19:58 5.94035 63.01032 40875 ft 483 kts 32°
2026-04-20 19:59 5.99526 63.04935 40875 ft 483 kts 32°
2026-04-20 19:59 6.05017 63.08840 40875 ft 483 kts 32°
2026-04-20 20:00 6.10504 63.12743 40877 ft 483 kts 32°
2026-04-20 20:00 6.15994 63.16648 40878 ft 484 kts 32°
2026-04-20 20:01 6.21503 63.20568 40878 ft 485 kts 32°
2026-04-20 20:01 6.26982 63.24469 40875 ft 485 kts 32°
2026-04-20 20:02 6.32487 63.28388 40875 ft 485 kts 32°
2026-04-20 20:02 6.38000 63.32314 40875 ft 485 kts 32°
2026-04-20 20:03 6.43506 63.36237 40880 ft 485 kts 32°
2026-04-20 20:03 6.49019 63.40165 40879 ft 485 kts 32°
2026-04-20 20:04 6.54530 63.44093 40879 ft 486 kts 32°
2026-04-20 20:04 6.60028 63.48012 40878 ft 487 kts 32°
2026-04-20 20:05 6.65561 63.51958 40878 ft 487 kts 32°
2026-04-20 20:05 6.71095 63.55906 40878 ft 487 kts 32°
2026-04-20 20:06 6.76629 63.59855 40879 ft 487 kts 32°
2026-04-20 20:06 6.82160 63.63803 40885 ft 487 kts 32°
2026-04-20 20:07 6.87672 63.67739 40877 ft 488 kts 32°
2026-04-20 20:07 6.93213 63.71696 40875 ft 488 kts 32°
2026-04-20 20:08 6.98756 63.75659 40874 ft 489 kts 32°
2026-04-20 20:08 7.04318 63.79633 40876 ft 490 kts 32°
2026-04-20 20:09 7.09879 63.83609 40877 ft 490 kts 32°
2026-04-20 20:09 7.15440 63.87587 40875 ft 490 kts 32°
2026-04-20 20:10 7.20969 63.91544 40876 ft 490 kts 32°
2026-04-20 20:10 7.26530 63.95524 40875 ft 490 kts 32°
2026-04-20 20:11 7.32095 63.99508 40875 ft 490 kts 32°
2026-04-20 20:11 7.37654 64.03489 40876 ft 490 kts 32°
2026-04-20 20:12 7.43214 64.07472 40877 ft 491 kts 32°
2026-04-20 20:12 7.48760 64.11447 40875 ft 491 kts 32°
2026-04-20 20:13 7.57120 64.17441 40877 ft 492 kts 32°
2026-04-20 20:13 7.62704 64.21446 40875 ft 492 kts 32°
2026-04-20 20:14 7.68284 64.25449 40873 ft 492 kts 32°
2026-04-20 20:14 7.73837 64.29435 40872 ft 492 kts 32°
2026-04-20 20:15 7.79416 64.33440 40873 ft 492 kts 32°
2026-04-20 20:15 7.85001 64.37450 40875 ft 492 kts 32°
2026-04-20 20:16 7.90591 64.41466 40878 ft 494 kts 32°
2026-04-20 20:16 7.96159 64.45468 40875 ft 494 kts 32°
2026-04-20 20:17 8.01771 64.49502 40876 ft 494 kts 32°
2026-04-20 20:17 8.07333 64.53503 40876 ft 494 kts 32°
2026-04-20 20:18 8.12944 64.57539 40875 ft 494 kts 32°
2026-04-20 20:18 8.18544 64.61569 40873 ft 494 kts 32°
2026-04-20 20:19 8.24143 64.65600 40880 ft 494 kts 32°
2026-04-20 20:19 8.29749 64.69637 40873 ft 495 kts 32°
2026-04-20 20:20 8.35317 64.73648 40873 ft 495 kts 32°
2026-04-20 20:20 8.40934 64.77696 40873 ft 495 kts 32°
2026-04-20 20:21 8.46537 64.81736 40873 ft 495 kts 32°
2026-04-20 20:21 8.52151 64.85784 40873 ft 495 kts 32°
2026-04-20 20:22 8.57757 64.89829 40873 ft 495 kts 32°
2026-04-20 20:22 8.63327 64.93849 40873 ft 495 kts 32°
2026-04-20 20:23 8.68936 64.97899 40874 ft 495 kts 32°
2026-04-20 20:23 8.74551 65.01954 40870 ft 496 kts 32°
2026-04-20 20:24 8.80183 65.06023 40870 ft 497 kts 32°
2026-04-20 20:24 8.85807 65.10088 40870 ft 497 kts 32°
2026-04-20 20:25 8.91434 65.14157 40870 ft 497 kts 32°
2026-04-20 20:25 8.97048 65.18218 40871 ft 497 kts 32°
2026-04-20 20:26 9.02651 65.22273 40870 ft 497 kts 32°
2026-04-20 20:26 9.08278 65.26346 40870 ft 497 kts 32°
2026-04-20 20:27 9.13905 65.30422 40868 ft 497 kts 32°
2026-04-20 20:27 9.19541 65.34504 40870 ft 498 kts 32°
2026-04-20 20:28 9.25155 65.38574 40870 ft 499 kts 32°
2026-04-20 20:28 9.30795 65.42664 40872 ft 499 kts 32°
2026-04-20 20:29 9.36441 65.46759 40870 ft 499 kts 32°
2026-04-20 20:29 9.42082 65.50853 40867 ft 499 kts 32°
2026-04-20 20:30 9.47729 65.54953 40868 ft 499 kts 32°
2026-04-20 20:30 9.53371 65.59052 40869 ft 499 kts 32°
2026-04-20 20:31 9.59019 65.63154 40869 ft 500 kts 32°
2026-04-20 20:31 9.64644 65.67238 40868 ft 501 kts 32°
2026-04-20 20:32 9.70317 65.71362 40866 ft 501 kts 32°
2026-04-20 20:32 9.75994 65.75490 40868 ft 501 kts 32°
2026-04-20 20:33 9.81664 65.79615 40868 ft 502 kts 32°
2026-04-20 20:33 9.87333 65.83742 40866 ft 502 kts 32°
2026-04-20 20:34 9.92969 65.87846 40865 ft 502 kts 32°
2026-04-20 20:34 9.98644 65.91980 40868 ft 502 kts 32°
2026-04-20 20:35 10.04324 65.96118 40869 ft 503 kts 32°
2026-04-20 20:35 10.10016 66.00269 40865 ft 504 kts 32°
2026-04-20 20:36 10.15703 66.04416 40864 ft 504 kts 32°
2026-04-20 20:36 10.20448 66.07880 40865 ft 504 kts 32°
2026-04-20 20:37 10.27063 66.12710 40863 ft 504 kts 32°
2026-04-20 20:37 10.31837 66.16196 40864 ft 504 kts 32°
2026-04-20 20:38 10.37504 66.20337 40876 ft 504 kts 32°
2026-04-20 20:38 10.43201 66.24501 40866 ft 505 kts 32°
2026-04-20 20:39 10.48905 66.28672 40863 ft 506 kts 32°
2026-04-20 20:39 10.54636 66.32866 40865 ft 506 kts 32°
2026-04-20 20:40 10.60355 66.37053 40864 ft 507 kts 32°
2026-04-20 20:40 10.66042 66.41218 40863 ft 507 kts 32°
2026-04-20 20:41 10.71763 66.45410 40863 ft 507 kts 32°
2026-04-20 20:41 10.77481 66.49602 40863 ft 507 kts 32°
2026-04-20 20:42 10.83202 66.53798 40864 ft 507 kts 32°
2026-04-20 20:42 10.88921 66.57994 40860 ft 507 kts 33°
2026-04-20 20:43 10.94652 66.62201 40862 ft 508 kts 33°
2026-04-20 20:43 11.00394 66.66419 40864 ft 509 kts 33°
2026-04-20 20:44 11.06103 66.70614 40861 ft 509 kts 33°
2026-04-20 20:44 11.11841 66.74833 40868 ft 509 kts 33°
2026-04-20 20:45 11.17588 66.79061 40860 ft 509 kts 33°
2026-04-20 20:45 11.23334 66.83290 40868 ft 510 kts 33°
2026-04-20 20:46 11.29048 66.87497 40869 ft 510 kts 33°
2026-04-20 20:46 11.34836 66.91761 40862 ft 510 kts 33°
2026-04-20 20:47 11.40561 66.95980 40867 ft 511 kts 33°
2026-04-20 20:47 11.46334 67.00238 40875 ft 512 kts 33°
2026-04-20 20:48 11.52096 67.04489 40861 ft 512 kts 33°
2026-04-20 20:48 11.57864 67.08747 40861 ft 512 kts 33°
2026-04-20 20:49 11.63630 67.13006 40861 ft 512 kts 33°
2026-04-20 20:49 11.69407 67.17276 40860 ft 512 kts 33°
2026-04-20 20:50 11.75141 67.21515 40859 ft 512 kts 33°
2026-04-20 20:50 11.80925 67.25793 40875 ft 513 kts 33°
2026-04-20 20:51 11.86717 67.30079 40858 ft 515 kts 33°
2026-04-20 20:51 11.92509 67.34370 40858 ft 515 kts 33°
2026-04-20 20:52 11.98317 67.38681 40861 ft 515 kts 33°
2026-04-20 20:52 12.04072 67.43044 40859 ft 515 kts 34°
2026-04-20 20:53 12.09776 67.47397 40858 ft 515 kts 34°
2026-04-20 20:53 12.15527 67.51776 40861 ft 515 kts 34°
2026-04-20 20:54 12.21282 67.56151 40855 ft 516 kts 34°
2026-04-20 20:54 12.27076 67.60554 40856 ft 520 kts 34°
2026-04-20 20:55 12.32885 67.64973 40856 ft 520 kts 34°
2026-04-20 20:55 12.38695 67.69397 40856 ft 520 kts 34°
2026-04-20 20:56 12.44460 67.73788 40856 ft 520 kts 34°
2026-04-20 20:56 12.50273 67.78218 40856 ft 520 kts 34°
2026-04-20 20:57 12.56073 67.82641 40859 ft 520 kts 34°
2026-04-20 20:57 12.61880 67.87072 40858 ft 520 kts 34°
2026-04-20 20:58 12.67694 67.91510 40858 ft 520 kts 34°
2026-04-20 20:58 12.73461 67.95916 40857 ft 520 kts 34°
2026-04-20 20:59 12.79269 68.00354 40857 ft 520 kts 34°
2026-04-20 20:59 12.85082 68.04783 40852 ft 520 kts 34°
2026-04-20 21:00 12.90923 68.09175 40868 ft 520 kts 33°
2026-04-20 21:00 12.96767 68.13566 40860 ft 520 kts 34°
2026-04-20 21:01 13.02567 68.17937 40855 ft 520 kts 34°
2026-04-20 21:01 13.08417 68.22353 40856 ft 523 kts 34°
2026-04-20 21:02 13.14289 68.26789 40858 ft 525 kts 34°
2026-04-20 21:02 13.20165 68.31232 40855 ft 525 kts 34°
2026-04-20 21:03 13.26049 68.35683 40861 ft 525 kts 34°
2026-04-20 21:03 13.31927 68.40132 40853 ft 525 kts 34°
2026-04-20 21:04 13.37810 68.44587 40853 ft 525 kts 34°
2026-04-20 21:04 13.43687 68.49041 40853 ft 525 kts 34°
2026-04-20 21:05 13.49529 68.53470 40852 ft 525 kts 34°
2026-04-20 21:05 13.55427 68.57945 40854 ft 528 kts 34°
2026-04-20 21:06 13.61350 68.62442 40870 ft 529 kts 34°
2026-04-20 21:06 13.67272 68.66941 40853 ft 529 kts 34°
2026-04-20 21:07 13.73189 68.71439 40854 ft 529 kts 34°
2026-04-20 21:07 13.79106 68.75941 40853 ft 529 kts 34°
2026-04-20 21:08 13.84988 68.80418 40853 ft 529 kts 34°
2026-04-20 21:08 13.90904 68.84924 40853 ft 529 kts 34°
2026-04-20 21:09 13.96824 68.89435 40854 ft 531 kts 35°
2026-04-20 21:09 14.02770 68.93970 40854 ft 532 kts 35°
2026-04-20 21:10 14.08722 68.98513 40854 ft 532 kts 35°
2026-04-20 21:10 14.14672 69.02968 40853 ft 531 kts 34°
2026-04-20 21:11 14.20706 69.07385 40853 ft 531 kts 33°
2026-04-20 21:11 14.26736 69.11812 40851 ft 531 kts 34°
2026-04-20 21:12 14.32757 69.16255 40848 ft 531 kts 34°
2026-04-20 21:12 14.38769 69.20703 40846 ft 532 kts 34°
2026-04-20 21:13 14.44761 69.25141 40848 ft 534 kts 34°
2026-04-20 21:13 14.50803 69.29617 40848 ft 534 kts 34°
2026-04-20 21:14 14.56845 69.34096 40848 ft 534 kts 34°
2026-04-20 21:14 14.62892 69.38582 40848 ft 534 kts 34°
2026-04-20 21:15 14.68926 69.43062 40848 ft 534 kts 34°
2026-04-20 21:15 14.74940 69.47529 40847 ft 534 kts 34°
2026-04-20 21:16 14.80977 69.52017 40848 ft 534 kts 34°
2026-04-20 21:16 14.87020 69.56512 40849 ft 536 kts 34°
2026-04-20 21:17 14.93046 69.60997 40852 ft 537 kts 34°
2026-04-20 21:17 14.99113 69.65517 40850 ft 537 kts 34°
2026-04-20 21:18 15.05178 69.70038 40860 ft 537 kts 34°
2026-04-20 21:18 15.11250 69.74569 40842 ft 537 kts 34°
2026-04-20 21:19 15.17288 69.79131 40842 ft 537 kts 35°
2026-04-20 21:20 15.26257 69.86003 40844 ft 537 kts 35°
2026-04-20 21:20 15.31299 69.89863 40843 ft 539 kts 35°
2026-04-20 21:21 15.38322 69.95236 40840 ft 541 kts 35°
2026-04-20 21:21 15.44381 69.99872 40841 ft 540 kts 35°
2026-04-20 21:22 15.50431 70.04505 40840 ft 540 kts 35°
2026-04-20 21:22 15.56487 70.09147 40840 ft 540 kts 35°
2026-04-20 21:23 15.62530 70.13781 40840 ft 540 kts 35°
2026-04-20 21:23 15.68534 70.18390 40839 ft 540 kts 35°
2026-04-20 21:24 15.74584 70.23037 40838 ft 542 kts 36°
2026-04-20 21:24 15.80662 70.27708 40838 ft 544 kts 36°
2026-04-20 21:25 15.86736 70.32381 40837 ft 544 kts 36°
2026-04-20 21:25 15.92787 70.37040 40837 ft 543 kts 36°
2026-04-20 21:26 15.98856 70.41716 40837 ft 543 kts 36°
2026-04-20 21:26 16.03908 70.45612 40837 ft 543 kts 36°
2026-04-20 21:27 16.09984 70.50299 40835 ft 543 kts 36°
2026-04-20 21:27 16.16024 70.54963 40824 ft 543 kts 36°
2026-04-20 21:28 16.22117 70.59671 40825 ft 546 kts 36°
2026-04-20 21:28 16.28230 70.64399 40831 ft 546 kts 36°
2026-04-20 21:29 16.34304 70.69101 40825 ft 546 kts 36°
2026-04-20 21:29 16.40399 70.73822 40844 ft 546 kts 36°
2026-04-20 21:30 16.46501 70.78553 40847 ft 546 kts 36°
2026-04-20 21:30 16.52608 70.83292 40840 ft 546 kts 36°
2026-04-20 21:31 16.58675 70.88058 40831 ft 546 kts 36°
2026-04-20 21:31 16.64715 70.92824 40833 ft 548 kts 36°
2026-04-20 21:32 16.70815 70.97638 40835 ft 549 kts 36°
2026-04-20 21:32 16.76909 71.02449 40831 ft 550 kts 37°
2026-04-20 21:33 16.83005 71.07265 40827 ft 550 kts 37°
2026-04-20 21:33 16.89065 71.12056 40831 ft 549 kts 37°
2026-04-20 21:34 16.95153 71.16873 40831 ft 548 kts 37°
2026-04-20 21:34 17.01233 71.21689 40827 ft 548 kts 37°
2026-04-20 21:35 17.07309 71.26504 40830 ft 548 kts 37°
2026-04-20 21:35 17.13392 71.31330 40833 ft 548 kts 37°
2026-04-20 21:36 17.19472 71.36157 40832 ft 548 kts 37°
2026-04-20 21:36 17.25550 71.40986 40829 ft 548 kts 37°
2026-04-20 21:37 17.31613 71.45809 40831 ft 548 kts 37°
2026-04-20 21:37 17.37824 71.50302 40834 ft 546 kts 26°
2026-04-20 21:38 17.44562 71.53967 40829 ft 545 kts 25°
2026-04-20 21:38 17.51321 71.57605 40824 ft 547 kts 25°
2026-04-20 21:39 17.58103 71.61272 40761 ft 549 kts 25°
2026-04-20 21:39 17.61491 71.63107 40496 ft 547 kts 25°
2026-04-20 21:39 17.64866 71.64937 39889 ft 546 kts 25°
2026-04-20 21:39 17.68264 71.66779 39022 ft 552 kts 26°
2026-04-20 21:40 17.71646 71.68613 38225 ft 556 kts 26°
2026-04-20 21:40 17.75085 71.70481 37498 ft 555 kts 26°
2026-04-20 21:40 17.78509 71.72341 36838 ft 553 kts 26°
2026-04-20 21:40 17.81914 71.74192 36181 ft 550 kts 25°
2026-04-20 21:41 17.85306 71.76036 35506 ft 548 kts 25°
2026-04-20 21:41 17.88687 71.77875 34844 ft 545 kts 25°
2026-04-20 21:41 17.92046 71.79703 34194 ft 542 kts 25°
2026-04-20 21:41 17.95385 71.81521 33505 ft 539 kts 25°
2026-04-20 21:42 17.98708 71.83330 32683 ft 537 kts 25°
2026-04-20 21:42 18.01979 71.85114 31807 ft 521 kts 25°
2026-04-20 21:42 18.05103 71.86818 31175 ft 503 kts 25°
2026-04-20 21:42 18.08155 71.88484 30611 ft 485 kts 25°
2026-04-20 21:43 18.11132 71.90108 30076 ft 482 kts 25°
2026-04-20 21:43 18.14120 71.91736 29489 ft 482 kts 25°
2026-04-20 21:43 18.17093 71.93357 28929 ft 480 kts 25°
2026-04-20 21:43 18.20055 71.94974 28385 ft 478 kts 25°
2026-04-20 21:44 18.22984 71.96574 28088 ft 468 kts 25°
2026-04-20 21:44 18.25833 71.98133 27955 ft 455 kts 25°
2026-04-20 21:44 18.28607 71.99651 27793 ft 443 kts 25°
2026-04-20 21:44 18.31305 72.01127 27596 ft 429 kts 25°
2026-04-20 21:45 18.33864 72.02528 27411 ft 410 kts 25°
2026-04-20 21:45 18.36342 72.03886 27233 ft 392 kts 25°
2026-04-20 21:45 18.38714 72.05185 26985 ft 377 kts 25°
2026-04-20 21:45 18.41017 72.06450 26606 ft 370 kts 25°
2026-04-20 21:46 18.43166 72.07950 26214 ft 372 kts 40°
2026-04-20 21:46 18.45011 72.09860 25849 ft 371 kts 45°
2026-04-20 21:46 18.46768 72.11846 25484 ft 369 kts 46°
2026-04-20 21:46 18.48515 72.13834 25141 ft 369 kts 46°
2026-04-20 21:47 18.50264 72.15817 24797 ft 367 kts 46°
2026-04-20 21:47 18.51978 72.17757 24442 ft 365 kts 46°
2026-04-20 21:47 18.53709 72.19712 24097 ft 363 kts 46°
2026-04-20 21:47 18.55427 72.21653 23750 ft 361 kts 46°
2026-04-20 21:48 18.57136 72.23582 23399 ft 359 kts 46°
2026-04-20 21:48 18.58839 72.25504 23013 ft 357 kts 46°
2026-04-20 21:48 18.60525 72.27407 22660 ft 354 kts 46°
2026-04-20 21:48 18.62197 72.29295 22314 ft 350 kts 46°
2026-04-20 21:49 18.63850 72.31163 21993 ft 347 kts 46°
2026-04-20 21:49 18.65493 72.33019 21657 ft 344 kts 46°
2026-04-20 21:49 18.67120 72.34858 21326 ft 341 kts 46°
2026-04-20 21:49 18.68733 72.36681 20999 ft 338 kts 46°
2026-04-20 21:50 18.70332 72.38489 20671 ft 336 kts 46°
2026-04-20 21:50 18.71918 72.40283 20343 ft 333 kts 46°
2026-04-20 21:50 18.73480 72.42051 20036 ft 332 kts 46°
2026-04-20 21:50 18.75052 72.43829 19709 ft 330 kts 46°
2026-04-20 21:51 18.76615 72.45599 19387 ft 329 kts 46°
2026-04-20 21:51 18.78168 72.47358 19065 ft 327 kts 46°
2026-04-20 21:51 18.79713 72.49108 18742 ft 325 kts 46°
2026-04-20 21:51 18.81252 72.50852 18422 ft 323 kts 47°
2026-04-20 21:52 18.82780 72.52585 18107 ft 322 kts 47°
2026-04-20 21:52 18.84286 72.54292 17915 ft 312 kts 47°
2026-04-20 21:52 18.85747 72.55949 17776 ft 304 kts 47°
2026-04-20 21:52 18.87161 72.57552 17513 ft 300 kts 47°
2026-04-20 21:53 18.88575 72.59157 17221 ft 298 kts 47°
2026-04-20 21:53 18.89878 72.60838 16948 ft 294 kts 59°
2026-04-20 21:53 18.90605 72.62824 16668 ft 289 kts 82°
2026-04-20 21:53 18.90794 72.64918 16396 ft 285 kts 89°
2026-04-20 21:54 18.90869 72.67008 16114 ft 283 kts 89°
2026-04-20 21:54 18.90936 72.69073 15848 ft 281 kts 89°
2026-04-20 21:54 18.91008 72.71125 15587 ft 278 kts 89°
2026-04-20 21:54 18.91084 72.73169 15326 ft 276 kts 89°
2026-04-20 21:55 18.91161 72.75186 15067 ft 274 kts 89°
2026-04-20 21:55 18.91240 72.77194 14807 ft 273 kts 89°
2026-04-20 21:55 18.91319 72.79190 14548 ft 272 kts 89°
2026-04-20 21:55 18.91397 72.81157 14295 ft 270 kts 90°
2026-04-20 21:56 18.91475 72.83137 14015 ft 270 kts 90°
2026-04-20 21:56 18.91554 72.85154 13427 ft 279 kts 90°
2026-04-20 21:56 18.91634 72.87215 12929 ft 282 kts 90°
2026-04-20 21:56 18.91716 72.89288 12526 ft 281 kts 90°
2026-04-20 21:57 18.91798 72.91347 12148 ft 280 kts 89°
2026-04-20 21:57 18.91879 72.93393 11786 ft 278 kts 89°
2026-04-20 21:57 18.91958 72.95421 11444 ft 276 kts 89°
2026-04-20 21:57 18.92037 72.97447 11043 ft 276 kts 89°
2026-04-20 21:58 18.92116 72.99467 10695 ft 274 kts 89°
2026-04-20 21:58 18.92193 73.01446 10362 ft 272 kts 89°
2026-04-20 21:58 18.92270 73.03437 10023 ft 270 kts 89°
2026-04-20 21:58 18.92347 73.05410 9679 ft 268 kts 89°
2026-04-20 21:59 18.92422 73.07373 9306 ft 267 kts 89°
2026-04-20 21:59 18.92496 73.09328 8914 ft 266 kts 88°
2026-04-20 21:59 18.92570 73.11274 8540 ft 265 kts 88°
2026-04-20 21:59 18.92644 73.13220 8145 ft 264 kts 88°
2026-04-20 22:00 18.92718 73.15152 7786 ft 263 kts 87°
2026-04-20 22:00 18.92797 73.17075 7428 ft 261 kts 86°
2026-04-20 22:00 18.92877 73.18988 7064 ft 260 kts 86°
2026-04-20 22:00 18.92956 73.20896 6708 ft 260 kts 86°
2026-04-20 22:01 18.93035 73.22798 6371 ft 259 kts 85°
2026-04-20 22:01 18.93113 73.24694 6000 ft 258 kts 85°
2026-04-20 22:01 18.93191 73.26565 5641 ft 257 kts 85°
2026-04-20 22:01 18.93270 73.28472 5269 ft 256 kts 85°
2026-04-20 22:02 18.93347 73.30342 4942 ft 253 kts 85°
2026-04-20 22:02 18.93420 73.32137 4807 ft 243 kts 85°
2026-04-20 22:02 18.93649 73.33855 4799 ft 239 kts 71°
2026-04-20 22:02 18.94435 73.35504 4816 ft 263 kts 48°
2026-04-20 22:03 18.95929 73.36589 4816 ft 264 kts 16°
2026-04-20 22:03 18.97741 73.36605 4814 ft 265 kts 343°
2026-04-20 22:03 18.99269 73.35541 4788 ft 269 kts 311°
2026-04-20 22:03 19.00128 73.33778 4682 ft 272 kts 291°
2026-04-20 22:04 19.00720 73.31876 4559 ft 272 kts 290°
2026-04-20 22:04 19.01506 73.30067 4432 ft 271 kts 302°
2026-04-20 22:04 19.02452 73.28355 4320 ft 269 kts 303°
2026-04-20 22:04 19.03409 73.26651 4178 ft 268 kts 303°
2026-04-20 22:05 19.04359 73.24979 4073 ft 265 kts 303°
2026-04-20 22:05 19.05302 73.23323 4020 ft 266 kts 303°
2026-04-20 22:05 19.06249 73.21665 3904 ft 258 kts 303°
2026-04-20 22:05 19.07169 73.20096 3774 ft 245 kts 304°
2026-04-20 22:06 19.08074 73.18620 3649 ft 233 kts 306°
2026-04-20 22:06 19.08808 73.17131 3519 ft 225 kts 293°
2026-04-20 22:06 19.09183 73.15556 3393 ft 217 kts 281°
2026-04-20 22:06 19.09265 73.13976 3312 ft 213 kts 272°
2026-04-20 22:07 19.09235 73.12458 3203 ft 201 kts 272°
2026-04-20 22:07 19.09204 73.11029 3085 ft 188 kts 272°
2026-04-20 22:07 19.09179 73.09696 2995 ft 173 kts 273°
2026-04-20 22:07 19.09159 73.08469 2985 ft 164 kts 273°
2026-04-20 22:08 19.09144 73.07283 2984 ft 163 kts 273°
2026-04-20 22:08 19.09132 73.06086 2988 ft 163 kts 274°
2026-04-20 22:08 19.09120 73.04892 2987 ft 162 kts 274°
2026-04-20 22:08 19.09106 73.03712 2895 ft 158 kts 274°
2026-04-20 22:09 19.09092 73.02574 2700 ft 152 kts 273°
2026-04-20 22:09 19.09075 73.01456 2498 ft 152 kts 273°
2026-04-20 22:09 19.09059 73.00357 2308 ft 147 kts 272°
2026-04-20 22:09 19.09044 72.99291 2124 ft 144 kts 272°
2026-04-20 22:10 19.09030 72.98237 1942 ft 143 kts 272°
2026-04-20 22:10 19.09016 72.97191 1762 ft 142 kts 271°
2026-04-20 22:10 19.09001 72.96161 1585 ft 141 kts 271°
2026-04-20 22:10 19.08987 72.95125 1400 ft 141 kts 271°
2026-04-20 22:11 19.08972 72.94095 1224 ft 140 kts 272°
2026-04-20 22:11 19.08958 72.93070 1033 ft 139 kts 271°
2026-04-20 22:11 19.08944 72.92048 873 ft 139 kts 272°
2026-04-20 22:11 19.08931 72.91033 688 ft 137 kts 271°
2026-04-20 22:12 19.08915 72.90024 516 ft 137 kts 271°
2026-04-20 22:12 19.08889 72.89028 337 ft 135 kts 270°
2026-04-20 22:12 19.08885 72.88024 178 ft 137 kts 272°
2026-04-20 22:12 19.08877 72.87031 53 ft 127 kts 268°
2026-04-20 22:13 19.08863 72.86321 54 ft 60 kts 269°
2026-04-20 22:13 19.08867 72.86050 48 ft 25 kts 279°
2026-04-20 22:13 19.08919 72.85890 50 ft 14 kts 300°
2026-04-20 22:13 19.08960 72.85821 53 ft 7 kts 299°
2026-04-20 22:14 19.08988 72.85769 51 ft 10 kts 300°
2026-04-20 22:14 19.09024 72.85743 51 ft 9 kts 350°
2026-04-20 22:14 19.09042 72.85776 51 ft 6 kts 94°
2026-04-20 22:14 19.09036 72.85833 52 ft 10 kts 97°
2026-04-20 22:15 19.09032 72.85946 55 ft 14 kts 88°
2026-04-20 22:15 19.09033 72.86020 55 ft 16 kts 89°
2026-04-20 22:15 19.09035 72.86146 55 ft 19 kts 89°
2026-04-20 22:15 19.09038 72.86289 55 ft 18 kts 83°
2026-04-20 22:16 19.09111 72.86398 48 ft 20 kts 49°
2026-04-20 22:16 19.09208 72.86513 50 ft 22 kts 48°
2026-04-20 22:16 19.09312 72.86639 48 ft 24 kts 49°
2026-04-20 22:16 19.09407 72.86752 48 ft 18 kts 47°
2026-04-20 22:17 19.09414 72.86838 49 ft 2 kts 95°
2026-04-20 22:17 19.09417 72.86862 49 ft 5 kts 76°
2026-04-20 22:17 19.09439 72.86901 49 ft 8 kts 55°
2026-04-20 22:17 19.09469 72.86939 49 ft 4 kts 60°
2026-04-20 22:18 19.09464 72.86968 52 ft 5 kts 111°
2026-04-20 22:18 19.09447 72.87000 49 ft 3 kts 123°
2026-04-20 22:18 19.09435 72.87017 52 ft 2 kts 125°
2026-04-20 22:18 19.09433 72.87021 52 ft 0 kts 126°
2026-04-20 22:19 19.09432 72.87022 52 ft 0 kts 126°
2026-04-20 22:19 19.09430 72.87025 51 ft 0 kts 126°